This is the latest recevied weather packets stored in our database for station/object NK7E-2. If no packets are shown the sender has not sent any weather packets the latest 10 day(s).
| Time | Temp. | Humidity | Pressure | Rain* | Wind** | Luminosity | Snow |
|---|---|---|---|---|---|---|---|
| 1777700716 | 20.56° C | 26% | 1021.1 hPa | 0 mm | - | - | - |
| 1777700116 | 20.56° C | 26% | 1021.1 hPa | 0 mm | - | - | - |
| 1777699516 | 20.56° C | 25% | 1020.9 hPa | 0 mm | - | - | - |
| 1777698916 | 21.11° C | 25% | 1020.9 hPa | 0 mm | - | - | - |
| 1777698316 | 21.11° C | 25% | 1020.7 hPa | 0 mm | - | - | - |
| 1777697716 | 20.56° C | 25% | 1020.6 hPa | 0 mm | - | - | - |
| 1777697116 | 21.11° C | 24% | 1020.6 hPa | 0 mm | - | - | - |
| 1777696516 | 21.11° C | 24% | 1020.5 hPa | 0 mm | - | - | - |
| 1777695916 | 21.67° C | 24% | 1020.5 hPa | 0 mm | - | - | - |
| 1777695316 | 21.67° C | 24% | 1020.6 hPa | 0 mm | - | - | - |
| 1777694716 | 21.67° C | 24% | 1020.2 hPa | 0 mm | - | - | - |
| 1777694116 | 21.11° C | 25% | 1019.9 hPa | 0 mm | - | - | - |
| 1777693516 | 21.67° C | 24% | 1020 hPa | 0 mm | - | - | - |
| 1777692916 | 22.22° C | 24% | 1020 hPa | 0 mm | - | - | - |
| 1777692316 | 22.22° C | 24% | 1019.6 hPa | 0 mm | - | - | - |
| 1777691716 | 22.78° C | 23% | 1019.5 hPa | 0 mm | - | - | - |
| 1777691116 | 23.33° C | 23% | 1019.4 hPa | 0 mm | - | - | - |
| 1777690516 | 23.33° C | 23% | 1019.4 hPa | 0 mm | - | - | - |
| 1777689916 | 23.89° C | 23% | 1019 hPa | 0 mm | - | - | - |
| 1777689316 | 23.89° C | 22% | 1019.1 hPa | 0 mm | - | - | - |
| 1777688716 | 23.89° C | 22% | 1019 hPa | 0 mm | - | - | - |
| 1777687516 | 24.44° C | 21% | 1018.3 hPa | 0 mm | - | - | - |
| 1777674317 | 27.22° C | 20% | 1018.4 hPa | 0 mm | - | - | - |
| 1777673717 | 27.22° C | 20% | 1018.5 hPa | 0 mm | - | - | - |
| 1777671317 | 26.67° C | 20% | 1019.2 hPa | 0 mm | - | - | - |
* Rain latest hour (hover to see other rain measurements)
** Current wind speed in m/s (hover to see current wind gust speed)